Regional Weather Roundup
Issued by NWS

Home | Current Version | Previous Version | Graphics & Text | Print | Product List | Glossary On
Versions: 1 2 3 4 5 6 7 8 9 10 11 12 13 14 15 16 17 18 19 20 21 22 23 24 25 26 27 28 29 30 31 32 33 34 35 36 37 38 39 40 41 42 43 44 45 46 47 48 49 50
000
ASUS43 KMPX 030901
RWRMN
WEATHER ROUNDUP FOR MINNESOTA
NATIONAL WEATHER SERVICE TWIN CITIES/CHANHASSEN MN
300 AM CST TUE MAR 03 2015


NOTE: "FAIR" INDICATES FEW OR NO CLOUDS BELOW 12,000 FEET WITH NO
SIGNIFICANT WEATHER AND/OR OBSTRUCTIONS TO VISIBILITY. N/A MEANS
CURRENT SKY AND/OR WEATHER CONDITIONS ARE NOT AVAILABLE.

MNZ060>063-068>070-031000-
   Twin Cities Metro

CITY           SKY/WX    TMP DP  RH WIND       PRES   REMARKS
TWIN CITIES    CLOUDY    22  11  62 SE6       29.90F WCI  14
ST PAUL        CLOUDY    22  11  62 SE7G35    29.91F WCI  13
CRYSTAL        CLOUDY    24  12  60 SE14      29.87  WCI  12
BLAINE         CLOUDY    25  14  63 SE14      29.88F WCI  13
LAKEVILLE      CLOUDY    19  14  79 SE8       29.89F WCI   9
EDEN PRAIRIE   CLOUDY    22  12  65 SE10      29.87F WCI  11
SOUTH ST PAUL  CLOUDY    23  12  62 SE5       29.90F WCI  17
LAKE ELMO      CLOUDY    23  12  63 SE7       29.90F WCI  15
$$
MNZ001>005-007-008-013>017-022>024-027-028-031000-
   Northwest Minnesota

CITY           SKY/WX    TMP DP  RH WIND       PRES   REMARKS
BEMIDJI        CLOUDY    24  18  80 S9        29.69F WCI  14
HALLOCK        CLOUDY    21  16  79 NW14      29.70F WCI   8
ROSEAU         CLOUDY    27  19  74 SW18G24   29.65F WCI  13
WARROAD        CLOUDY    25  19  80 SW15G22   29.65F WCI  12
THIEF RVR FALL CLOUDY    25  21  86 SW16      29.69F WCI  12
CROOKSTON      CLOUDY    25  21  86 SW12      29.74S WCI  14
FOSSTON        CLOUDY    23  19  86 SW14      29.70F WCI  11
DETROIT LAKES  CLOUDY    27  23  86 S13       29.71F WCI  16
MOORHEAD       CLOUDY    27  25  93 SW13      29.76R WCI  16
PARK RAPIDS    CLOUDY    24  18  77 S14       29.73F WCI  12
MAHNOMEN       FAIR      26  21  83 S15       29.70F WCI  13
$$
MNZ006-009>011-018-025>026-031000-
   North Central Minnesota

CITY           SKY/WX    TMP DP  RH WIND       PRES   REMARKS
BAUDETTE       CLOUDY    24  15  68 S14       29.66F WCI  12
FLAG ISLAND    CLOUDY    19  16  86 S10       29.63F WCI   8
INTL FALLS     CLOUDY    24  11  57 S9        29.69F WCI  14
WASKISH        CLOUDY    25  18  74 S6        29.69F WCI  18
BIG FORK       CLOUDY    23  12  63 S13       29.72F WCI  11
LONGVILLE      CLOUDY    21  16  79 S9        29.76F WCI  11
GRAND RAPIDS   CLOUDY    21  10  63 S17       29.74F WCI   7
CRANE LAKE     CLOUDY    21   9  58 S13       29.76F WCI   9
ORR            CLOUDY    21   9  58 S12G20    29.71F WCI   9
COOK           CLOUDY    21   9  58 S8        29.75F WCI  12
WALKER         CLOUDY    23  17  77 S6        29.73F WCI  15
$$
MNZ012-019>021-037-031000-
   Northeast Minnesota

CITY           SKY/WX    TMP DP  RH WIND       PRES   REMARKS
DULUTH         CLOUDY    20   7  57 S16       29.82F WCI   6
ELY            CLOUDY    19   5  53 S10G21    29.77F WCI   8
HIBBING        CLOUDY    20   7  57 S8        29.78F WCI  10
EVELETH        MOCLDY    21   9  58 S13       29.80F WCI   9
DULUTH HARBOR  CLOUDY    25   9  50 SW13      29.90F WCI  13
TWO HARBORS    CLOUDY    25  10  54 SW10G17   29.84F WCI  15
SILVER BAY     CLOUDY    23   9  54 SW7       29.84F WCI  15
GRAND MARAIS     N/A     26  16  65 SW18      29.89F WCI  13
G MARAIS ARPRT CLOUDY    18   7  62 S8        29.82F WCI   7
$$
MNZ029>031-032-039>041-046>048-054>057-064-031000-
   West Central Minnesota

CITY           SKY/WX    TMP DP  RH WIND       PRES   REMARKS
FERGUS FALLS   CLOUDY    25  19  80 S15G23    29.77F WCI  12
WHEATON        LGT SNOW  23  21  93 SE16      29.76F VSB 1   WCI  10
MORRIS         LGT SNOW  25  21  86 S15       29.76F VSB 1   WCI  12
ALEXANDRIA     LGT SNOW  22  19  89 S15       29.76F FOG     WCI   9
ELBOW LAKE     LGT SNOW  23  22  94 S22G28    29.74F WCI   8
WADENA         CLOUDY    21  18  86 S12       29.75F WCI   9
GLENWOOD       LGT SNOW  21  19  93 S15       29.78F WCI   8
APPLETON       LGT SNOW  27  21  80 S12       29.78F WCI  16
BENSON         LGT SNOW  25  19  80 S13       29.78F WCI  13
ORTONVILLE     LGT SNOW  25  21  86 SE9       29.76F WCI  15
MADISON        FLURRIES  27  21  80 S12       29.77F WCI  16
WILLMAR        CLOUDY    23  18  80 SE13      29.81F WCI  11
$$
MNZ033>034-036-042>043-049>051-058-059-031000-
   Central Minnesota

CITY           SKY/WX    TMP DP  RH WIND       PRES   REMARKS
ST CLOUD       LGT SNOW  20  15  81 SE10      29.84F WCI   9
SAUK CENTRE    FLURRIES  21  19  90 SE12      29.80F WCI   9
PAYNESVILLE    CLOUDY    19  17  90 E13       29.81F WCI   6
AITKIN         FLURRIES  23  16  74 S10G20    29.79F WCI  12
PINE RIVER     FLURRIES  21  16  79 S9        29.80F WCI  11
BRAINERD       LGT SNOW  21  15  78 S14       29.80F WCI   8
STAPLES        LGT SNOW  21  18  86 S16       29.77F WCI   7
LITTLE FALLS   FLURRIES  21  18  86 SE8       29.82F WCI  12
LITCHFIELD     CLOUDY    23  16  74 SE6       29.83F WCI  16
BUFFALO        CLOUDY    23  13  65 SE6       29.87F WCI  16
MAPLE LAKE     CLOUDY    24  16  72 SE8       29.86F WCI  15
$$
MNZ037-044-045-052-053-031000-
   East Central Minnesota

CITY           SKY/WX    TMP DP  RH WIND       PRES   REMARKS
PRINCETON      CLOUDY    23  16  74 SE8       29.87F WCI  14
MORA           LGT SNOW  21  16  79 S9        29.88F WCI  11
RUSH CITY      CLOUDY    20  16  83 SE6       29.89F WCI  12
MOOSE LAKE     LGT SNOW  21  14  73 CALM      29.84F
HINCKLEY       FLURRIES  21  18  86 S7        29.88F WCI  13
CLOQUET        CLOUDY    19   9  63 S8        29.84F WCI   9
MCGREGOR       CLOUDY    21  14  73 S9        29.82F WCI  11
$$
MNZ071>073-080-081-089-090-097-098-031000-
   Southwest Minnesota

CITY           SKY/WX    TMP DP  RH WIND       PRES   REMARKS
MONTEVIDEO     CLOUDY    25  19  80 S12       29.79F WCI  14
GRANITE FALLS  CLOUDY    23  19  86 SE13      29.80F WCI  11
CANBY          CLOUDY    28  21  75 S8        29.76F WCI  20
MARSHALL       CLOUDY    25  18  74 S12       29.78F WCI  14
REDWOOD FALLS  CLOUDY    23  18  81 SE13      29.81F WCI  11
OLIVIA         MOCLDY    21  19  93 SE13      29.81F WCI   9
PIPESTONE      CLOUDY    25  19  80 S13       29.73F WCI  13
WINDOM         CLOUDY    23  19  86 SE7       29.78F WCI  15
WORTHINGTON    CLOUDY    23  18  80 S10       29.77F WCI  12
JACKSON        CLOUDY    25  21  86 SE9       29.79F WCI  15
TRACY          CLOUDY    26  21  82 S9        29.77F WCI  16
SLAYTON        CLOUDY    23  19  83 CALM      29.75F
$$
MNZ065>067-074>077-082>085-091>093-031000-
   South Central Minnesota

CITY           SKY/WX    TMP DP  RH WIND       PRES   REMARKS
MANKATO        CLOUDY    23  16  74 SE13      29.85F WCI  11
NEW ULM        CLOUDY    21  16  79 SE12      29.83F WCI   9
ST JAMES       CLOUDY    25  19  80 SE10      29.83F WCI  15
FAIRMONT       CLOUDY    23  18  80 SE13      29.81F WCI  11
GLENCOE        CLOUDY    24  17  77 SE8       29.84F WCI  14
FARIBAULT      CLOUDY    25  16  68 SE9       29.87F WCI  15
OWATONNA       CLOUDY    23  16  74 SE13      29.86F WCI  11
ALBERT LEA     CLOUDY    23  18  80 SE13      29.85F WCI  11
$$
MNZ078>079-086>088-094>096-031000-
   Southeast Minnesota

CITY           SKY/WX    TMP DP  RH WIND       PRES   REMARKS
ROCHESTER      CLOUDY    21  14  74 SE14      29.88F WCI   8
RED WING       CLOUDY    23  12  63 SE8       29.91F WCI  14
STANTON        CLOUDY    24  15  67 SE7       29.87F WCI  16
DODGE CENTER   CLOUDY    21  18  86 SE16      29.86F WCI   7
WINONA         CLOUDY    25  18  74 SE7       29.97F WCI  17
AUSTIN         CLOUDY    21  18  86 SE10      29.86F WCI  10
PRESTON        CLOUDY    21  16  80 SE9       29.89F WCI  11
$$
ABBREVIATIONS USED IN REMARKS
   TC - TEMPERATURES IN CELSIUS
  WCI - WIND CHILL INDEX
   HX - HEAT INDEX
  VSB - VISIBILITY
$$



USA.gov is the U.S. government's official web portal to all federal, state and local government web resources and services.